Station Historical Data
Daily Summary for August 26, 2017 Units:  Metric    English   Both
« Previous Day
Next Day »
Daily Weekly Monthly Yearly Custom
  High: Low: Average:
Temperature: 22.5 °C 8.7 °C 15.8 °C
Dew Point: 13.1 °C 6.6 °C 9.6 °C
Humidity: 87% 45% 68%
Wind Speed: 9.7km/h 0km/h 1.4km/h
Wind Gust: 19.3km/h - -
Wind- - ESE
Pressure: 1027 hPa 1024.3 hPa -
Precipitation: 0 mm    
Historical Graphs
 
 
Tabular Data for August 26, 2017
Time Temperature Dew Point Pressure Wind Wind Speed Wind Gust Humidity Rainfall Rate (Hourly)
00:04 12.5 °C 8.4 °C 1024.9 hPa Calm     76% 0 mm
00:09 12.4 °C 8.3 °C 1024.9 hPa Calm     76% 0 mm
00:14 12.4 °C 8.3 °C 1024.9 hPa Calm     76% 0 mm
00:19 12.3 °C 8.2 °C 1024.9 hPa Calm     76% 0 mm
00:24 12.2 °C 8.3 °C 1024.9 hPa Calm     77% 0 mm
00:29 12 °C 8.1 °C 1024.9 hPa Calm     77% 0 mm
00:34 11.9 °C 8.2 °C 1024.9 hPa Calm     78% 0 mm
00:39 11.8 °C 8.1 °C 1024.9 hPa Calm     78% 0 mm
00:44 11.7 °C 8.2 °C 1024.9 hPa Calm     79% 0 mm
00:49 11.6 °C 8.1 °C 1024.9 hPa Calm     79% 0 mm
00:54 11.5 °C 8.2 °C 1024.9 hPa Calm     80% 0 mm
00:59 11.4 °C 8.1 °C 1024.9 hPa Calm     80% 0 mm
01:04 11.3 °C 8.2 °C 1024.9 hPa Calm     81% 0 mm
01:09 11.3 °C 8.2 °C 1024.9 hPa Calm     81% 0 mm
01:14 11.3 °C 8.1 °C 1024.9 hPa Calm     81% 0 mm
01:19 11.2 °C 8.1 °C 1024.9 hPa Calm     81% 0 mm
01:24 11.1 °C 7.9 °C 1024.9 hPa Calm     81% 0 mm
01:29 11.1 °C 7.9 °C 1024.9 hPa Calm     81% 0 mm
01:34 11.1 °C 7.9 °C 1024.9 hPa Calm     81% 0 mm
01:39 11.1 °C 7.9 °C 1024.9 hPa Calm     81% 0 mm
01:44 10.9 °C 7.8 °C 1024.9 hPa Calm     81% 0 mm
01:49 10.8 °C 7.9 °C 1024.6 hPa Calm     82% 0 mm
01:54 10.8 °C 7.8 °C 1024.9 hPa Calm     82% 0 mm
01:59 10.8 °C 7.8 °C 1024.9 hPa Calm     82% 0 mm
02:04 10.7 °C 7.9 °C 1024.9 hPa Calm     83% 0 mm
02:09 10.6 °C 7.8 °C 1024.9 hPa Calm     83% 0 mm
02:14 10.6 °C 7.8 °C 1024.9 hPa Calm     83% 0 mm
02:19 10.5 °C 7.7 °C 1024.9 hPa Calm     83% 0 mm
02:24 10.4 °C 7.7 °C 1024.9 hPa Calm     83% 0 mm
02:29 10.4 °C 7.6 °C 1024.9 hPa Calm     83% 0 mm
02:34 10.3 °C 7.7 °C 1024.9 hPa Calm     84% 0 mm
02:39 10.3 °C 7.7 °C 1024.9 hPa Calm     84% 0 mm
02:44 10.3 °C 7.7 °C 1024.9 hPa Calm     84% 0 mm
02:49 10.3 °C 7.7 °C 1024.9 hPa Calm     84% 0 mm
02:54 10.3 °C 7.7 °C 1024.9 hPa Calm     84% 0 mm
02:59 10.2 °C 7.6 °C 1024.9 hPa Calm     84% 0 mm
03:04 10.1 °C 7.6 °C 1024.9 hPa Calm     84% 0 mm
03:09 10.1 °C 7.6 °C 1024.9 hPa Calm     84% 0 mm
03:14 10.1 °C 7.5 °C 1024.9 hPa Calm     84% 0 mm
03:19 10 °C 7.4 °C 1024.9 hPa Calm     84% 0 mm
03:24 10 °C 7.4 °C 1024.9 hPa Calm     84% 0 mm
03:29 9.9 °C 7.3 °C 1024.9 hPa Calm     84% 0 mm
03:34 9.8 °C 7.4 °C 1024.9 hPa Calm     85% 0 mm
03:39 9.8 °C 7.4 °C 1024.9 hPa Calm     85% 0 mm
03:44 9.8 °C 7.4 °C 1024.9 hPa Calm     85% 0 mm
03:49 9.8 °C 7.4 °C 1024.9 hPa Calm     85% 0 mm
03:54 9.7 °C 7.3 °C 1024.9 hPa Calm     85% 0 mm
03:59 9.6 °C 7.2 °C 1024.9 hPa Calm     85% 0 mm
04:04 9.7 °C 7.3 °C 1024.9 hPa Calm     85% 0 mm
04:09 9.6 °C 7.2 °C 1024.9 hPa Calm     85% 0 mm
04:14 9.5 °C 7.1 °C 1024.9 hPa Calm     85% 0 mm
04:19 9.4 °C 7 °C 1025.3 hPa Calm     85% 0 mm
04:24 9.2 °C 7 °C 1025.3 hPa Calm     86% 0 mm
04:29 9.2 °C 7 °C 1025.3 hPa Calm     86% 0 mm
04:34 9.2 °C 7 °C 1025.3 hPa Calm     86% 0 mm
04:39 9.2 °C 7 °C 1025.3 hPa Calm     86% 0 mm
04:44 9.2 °C 7 °C 1025.3 hPa Calm     86% 0 mm
04:49 9.2 °C 6.9 °C 1025.3 hPa Calm     86% 0 mm
04:54 9 °C 6.8 °C 1025.3 hPa Calm     86% 0 mm
04:59 8.9 °C 6.9 °C 1025.3 hPa Calm     87% 0 mm
05:04 8.9 °C 6.7 °C 1025.6 hPa Calm     86% 0 mm
05:09 9 °C 6.9 °C 1025.6 hPa Calm     87% 0 mm
05:14 9 °C 6.9 °C 1025.6 hPa Calm     87% 0 mm
05:19 9.1 °C 7 °C 1025.6 hPa Calm     87% 0 mm
05:29 9.1 °C 7 °C 1025.6 hPa Calm     87% 0 mm
05:34 9.1 °C 7 °C 1025.6 hPa Calm     87% 0 mm
05:39 9 °C 6.9 °C 1025.6 hPa Calm     87% 0 mm
05:44 8.9 °C 6.9 °C 1025.6 hPa Calm     87% 0 mm
05:49 9.1 °C 7 °C 1025.6 hPa Calm     87% 0 mm
05:54 8.9 °C 6.9 °C 1025.6 hPa Calm     87% 0 mm
05:59 8.9 °C 6.9 °C 1025.6 hPa Calm     87% 0 mm
06:04 8.9 °C 6.9 °C 1025.6 hPa Calm     87% 0 mm
06:09 8.9 °C 6.9 °C 1025.6 hPa Calm     87% 0 mm
06:14 8.8 °C 6.8 °C 1025.6 hPa Calm     87% 0 mm
06:19 8.8 °C 6.8 °C 1025.6 hPa Calm     87% 0 mm
06:24 8.8 °C 6.7 °C 1025.6 hPa Calm     87% 0 mm
06:29 8.8 °C 6.7 °C 1026 hPa Calm     87% 0 mm
06:34 8.7 °C 6.6 °C 1026 hPa Calm     87% 0 mm
06:39 8.7 °C 6.7 °C 1026 hPa Calm     87% 0 mm
06:44 8.8 °C 6.7 °C 1026 hPa Calm     87% 0 mm
06:49 8.8 °C 6.7 °C 1026 hPa Calm     87% 0 mm
06:54 8.8 °C 6.7 °C 1026 hPa Calm     87% 0 mm
06:59 8.9 °C 6.8 °C 1026 hPa Calm     87% 0 mm
07:04 8.9 °C 6.9 °C 1026 hPa Calm     87% 0 mm
07:09 9.1 °C 7 °C 1026 hPa Calm     87% 0 mm
07:14 9.1 °C 7.1 °C 1026 hPa Calm     87% 0 mm
07:19 9.3 °C 7.2 °C 1026 hPa Calm     87% 0 mm
07:24 9.4 °C 7.2 °C 1026 hPa Calm     86% 0 mm
07:29 9.6 °C 7.3 °C 1026.3 hPa Calm     86% 0 mm
07:34 9.7 °C 7.3 °C 1026 hPa Calm     85% 0 mm
07:39 9.8 °C 7.4 °C 1026 hPa Calm     85% 0 mm
07:44 10 °C 7.4 °C 1026 hPa Calm     84% 0 mm
07:49 10.2 °C 7.6 °C 1026.3 hPa Calm     84% 0 mm
07:54 10.3 °C 7.7 °C 1026.3 hPa Calm     84% 0 mm
07:59 10.4 °C 7.7 °C 1026.3 hPa Calm     83% 0 mm
08:04 10.8 °C 7.8 °C 1026.3 hPa Calm     82% 0 mm
08:09 11 °C 7.9 °C 1026.3 hPa Calm     81% 0 mm
08:14 11.2 °C 8 °C 1026.3 hPa Calm     81% 0 mm
08:19 11.4 °C 8.1 °C 1026.6 hPa Calm     80% 0 mm
08:24 11.7 °C 8.3 °C 1026.3 hPa Calm   1.6 km/h 80% 0 mm
08:29 12 °C 8.4 °C 1026.6 hPa Calm   3.2 km/h 79% 0 mm
08:34 12.2 °C 8.5 °C 1026.6 hPa Calm   3.2 km/h 78% 0 mm
08:39 12.7 °C 8.6 °C 1026.6 hPa Calm   3.2 km/h 76% 0 mm
08:44 12.8 °C 8.7 °C 1026.6 hPa Calm   1.6 km/h 76% 0 mm
08:49 13.1 °C 8.7 °C 1026.6 hPa Calm     75% 0 mm
08:54 13.6 °C 9.3 °C 1026.6 hPa Calm     75% 0 mm
08:59 13.8 °C 9.2 °C 1026.6 hPa Calm     74% 0 mm
09:04 14.3 °C 9.5 °C 1026.6 hPa Calm     73% 0 mm
09:09 14.2 °C 9.2 °C 1026.6 hPa Calm   1.6 km/h 72% 0 mm
09:14 14.8 °C 10.1 °C 1026.6 hPa Calm   3.2 km/h 73% 0 mm
09:19 15.1 °C 10.3 °C 1026.6 hPa Calm   3.2 km/h 73% 0 mm
09:24 15.4 °C 9.9 °C 1026.6 hPa Calm     70% 0 mm
09:29 15.9 °C 10.1 °C 1026.6 hPa Calm     68% 0 mm
09:34 15.8 °C 9.5 °C 1026.6 hPa Calm   4.8 km/h 66% 0 mm
09:39 16 °C 9.7 °C 1026.6 hPa SSW 1.6 km/h 4.8 km/h 66% 0 mm
09:44 16.3 °C 9.7 °C 1026.6 hPa SSW 1.6 km/h 1.6 km/h 65% 0 mm
09:49 16.7 °C 10.3 °C 1026.6 hPa SSW 1.6 km/h 4.8 km/h 66% 0 mm
09:54 16.7 °C 10.3 °C 1027 hPa Calm   1.6 km/h 66% 0 mm
09:59 16.9 °C 10.3 °C 1026.6 hPa Calm     65% 0 mm
10:04 17.6 °C 10.9 °C 1026.6 hPa Calm     65% 0 mm
10:09 18.2 °C 10.5 °C 1026.6 hPa Calm     61% 0 mm
10:14 18.2 °C 10.8 °C 1026.6 hPa Calm     62% 0 mm
10:19 18.7 °C 10.2 °C 1026.6 hPa Calm     58% 0 mm
10:24 18.8 °C 9.8 °C 1026.6 hPa ENE 1.6 km/h 6.4 km/h 56% 0 mm
10:29 19 °C 10.8 °C 1026.6 hPa NNE 3.2 km/h 3.2 km/h 59% 0 mm
10:34 19.1 °C 9.8 °C 1026.6 hPa Calm   4.8 km/h 55% 0 mm
10:39 19.2 °C 9.9 °C 1027 hPa NNE 1.6 km/h 4.8 km/h 55% 0 mm
10:44 19.4 °C 10.9 °C 1026.6 hPa ENE 1.6 km/h 8 km/h 58% 0 mm
10:49 19.6 °C 9.7 °C 1026.6 hPa NE 1.6 km/h 6.4 km/h 53% 0 mm
10:54 19.6 °C 10.3 °C 1026.6 hPa Calm   4.8 km/h 55% 0 mm
10:59 19.8 °C 9.7 °C 1026.6 hPa Calm   4.8 km/h 52% 0 mm
11:04 19.8 °C 9.9 °C 1026.6 hPa ENE 3.2 km/h 4.8 km/h 53% 0 mm
11:09 19.9 °C 10.1 °C 1026.6 hPa ESE 1.6 km/h 8 km/h 53% 0 mm
11:14 20.3 °C 10.1 °C 1026.6 hPa ESE 3.2 km/h 8 km/h 52% 0 mm
11:19 20.3 °C 10.7 °C 1026.6 hPa NNW 3.2 km/h 6.4 km/h 54% 0 mm
11:24 20.5 °C 10.9 °C 1026.6 hPa NNW 3.2 km/h 6.4 km/h 54% 0 mm
11:29 20.8 °C 10.8 °C 1026.6 hPa North 1.6 km/h 8 km/h 53% 0 mm
11:34 20.7 °C 10.2 °C 1026.6 hPa NE 4.8 km/h 8 km/h 51% 0 mm
11:39 20.7 °C 10.7 °C 1026.6 hPa Calm   8 km/h 53% 0 mm
11:44 20.6 °C 11.8 °C 1026.3 hPa North 1.6 km/h 8 km/h 57% 0 mm
11:49 21 °C 12.7 °C 1026.3 hPa NNE 1.6 km/h 8 km/h 59% 0 mm
11:54 21.1 °C 11.9 °C 1026.3 hPa West 3.2 km/h 8 km/h 56% 0 mm
11:59 20.1 °C 10.2 °C 1026.3 hPa West 3.2 km/h 6.4 km/h 53% 0 mm
12:04 19.9 °C 11.4 °C 1026.3 hPa Calm   3.2 km/h 58% 0 mm
12:09 20.3 °C 10.4 °C 1026.3 hPa Calm   8 km/h 53% 0 mm
12:14 20.4 °C 11.3 °C 1026.3 hPa ENE 1.6 km/h 8 km/h 56% 0 mm
12:19 20.6 °C 11.4 °C 1026.3 hPa NNE 1.6 km/h 6.4 km/h 56% 0 mm
12:24 19.9 °C 10.9 °C 1026.3 hPa NNE 3.2 km/h 6.4 km/h 56% 0 mm
12:29 19.7 °C 10.4 °C 1026.3 hPa NNE 3.2 km/h 6.4 km/h 55% 0 mm
12:34 19.6 °C 10 °C 1026.3 hPa NW 3.2 km/h 4.8 km/h 54% 0 mm
12:39 19.8 °C 10.5 °C 1026.3 hPa Calm   3.2 km/h 55% 0 mm
12:44 20 °C 10.7 °C 1026 hPa Calm     55% 0 mm
12:49 21.1 °C 12 °C 1026 hPa Calm   4.8 km/h 56% 0 mm
12:54 21.6 °C 12.4 °C 1026 hPa NNW 3.2 km/h 6.4 km/h 56% 0 mm
12:59 21.6 °C 11.9 °C 1026 hPa North 1.6 km/h 6.4 km/h 54% 0 mm
13:04 21.6 °C 11.8 °C 1026 hPa North 3.2 km/h 9.7 km/h 54% 0 mm
13:09 21.7 °C 10.6 °C 1026 hPa WSW 6.4 km/h 8 km/h 49% 0 mm
13:14 21.4 °C 10.9 °C 1026 hPa SSW 3.2 km/h 6.4 km/h 51% 0 mm
13:19 21.8 °C 10.3 °C 1026 hPa SSW 3.2 km/h 6.4 km/h 48% 0 mm
13:24 22.2 °C 11.3 °C 1025.6 hPa NE 3.2 km/h 8 km/h 50% 0 mm
13:29 21.9 °C 10.4 °C 1025.6 hPa NNE 3.2 km/h 9.7 km/h 48% 0 mm
13:34 22.1 °C 10.2 °C 1025.6 hPa NNW 3.2 km/h 9.7 km/h 47% 0 mm
13:39 22.3 °C 10.8 °C 1025.6 hPa NW 3.2 km/h 9.7 km/h 48% 0 mm
13:44 22.2 °C 9.7 °C 1025.6 hPa WNW 3.2 km/h 9.7 km/h 45% 0 mm
13:49 22.3 °C 9.8 °C 1025.6 hPa WNW 4.8 km/h 9.7 km/h 45% 0 mm
13:54 22.4 °C 10.6 °C 1025.6 hPa NNW 3.2 km/h 6.4 km/h 47% 0 mm
13:59 22.5 °C 9.9 °C 1025.6 hPa WNW 4.8 km/h 6.4 km/h 45% 0 mm
14:04 22.3 °C 10.8 °C 1025.6 hPa North 6.4 km/h 14.5 km/h 48% 0 mm
14:09 21.2 °C 10.3 °C 1025.3 hPa NNE 1.6 km/h 6.4 km/h 50% 0 mm
14:14 20.8 °C 10.8 °C 1025.6 hPa North 4.8 km/h 8 km/h 53% 0 mm
14:19 20.8 °C 10.6 °C 1025.3 hPa North 3.2 km/h 8 km/h 52% 0 mm
14:24 21.3 °C 12.4 °C 1025.3 hPa NNE 3.2 km/h 8 km/h 57% 0 mm
14:29 21.7 °C 10.8 °C 1025.3 hPa North 1.6 km/h 6.4 km/h 50% 0 mm
14:34 21.9 °C 11.3 °C 1025.3 hPa NE 3.2 km/h 11.3 km/h 51% 0 mm
14:39 21.6 °C 10.7 °C 1025.3 hPa NE 1.6 km/h 11.3 km/h 50% 0 mm
14:44 21.1 °C 11.1 °C 1025.3 hPa NNW 3.2 km/h 6.4 km/h 53% 0 mm
14:49 20.8 °C 10.3 °C 1025.3 hPa NE 4.8 km/h 8 km/h 51% 0 mm
14:54 20.8 °C 10 °C 1025.3 hPa NNE 3.2 km/h 8 km/h 50% 0 mm
14:59 20.8 °C 10.9 °C 1024.9 hPa NNE 3.2 km/h 8 km/h 53% 0 mm
15:04 21 °C 11.6 °C 1024.9 hPa North 3.2 km/h 8 km/h 55% 0 mm
15:09 21.8 °C 11.8 °C 1024.9 hPa NNW 3.2 km/h 8 km/h 53% 0 mm
15:14 22.2 °C 11.3 °C 1024.9 hPa NW 4.8 km/h 9.7 km/h 50% 0 mm
15:19 21.8 °C 12.3 °C 1024.9 hPa Calm   8 km/h 55% 0 mm
15:24 21.3 °C 10.5 °C 1024.9 hPa North 4.8 km/h 16.1 km/h 50% 0 mm
15:29 21.3 °C 10.8 °C 1024.9 hPa NE 4.8 km/h 16.1 km/h 51% 0 mm
15:34 22 °C 12.6 °C 1024.9 hPa NE 4.8 km/h 16.1 km/h 55% 0 mm
15:39 22.3 °C 11.9 °C 1024.9 hPa NE 4.8 km/h 12.9 km/h 52% 0 mm
15:44 22.1 °C 12.4 °C 1024.9 hPa ENE 6.4 km/h 8 km/h 54% 0 mm
15:49 21.6 °C 11.8 °C 1024.9 hPa NE 3.2 km/h 8 km/h 54% 0 mm
15:54 21.1 °C 11.9 °C 1024.9 hPa NNE 4.8 km/h 6.4 km/h 56% 0 mm
15:59 20.8 °C 11.7 °C 1024.9 hPa NNE 3.2 km/h 6.4 km/h 56% 0 mm
16:04 20.7 °C 11.3 °C 1024.6 hPa NE 3.2 km/h 6.4 km/h 55% 0 mm
16:09 20.7 °C 11.8 °C 1024.6 hPa NNE 3.2 km/h 8 km/h 57% 0 mm
16:14 20.8 °C 11.7 °C 1024.9 hPa North 3.2 km/h 8 km/h 56% 0 mm
16:19 20.7 °C 11.6 °C 1024.6 hPa NW 1.6 km/h 6.4 km/h 56% 0 mm
16:24 21 °C 12.2 °C 1024.6 hPa ENE 4.8 km/h 19.3 km/h 57% 0 mm
16:29 21.6 °C 11.9 °C 1024.6 hPa ENE 8 km/h 19.3 km/h 54% 0 mm
16:34 22.1 °C 12.6 °C 1024.6 hPa NE 4.8 km/h 14.5 km/h 55% 0 mm
16:39 22.3 °C 13.1 °C 1024.6 hPa NNE 6.4 km/h 12.9 km/h 56% 0 mm
16:44 22.2 °C 12.7 °C 1024.6 hPa North 6.4 km/h 8 km/h 55% 0 mm
16:49 22.2 °C 12.4 °C 1024.6 hPa NNW 3.2 km/h 11.3 km/h 54% 0 mm
16:54 22 °C 12.6 °C 1024.6 hPa NNE 4.8 km/h 8 km/h 55% 0 mm
16:59 22 °C 12.8 °C 1024.3 hPa North 3.2 km/h 12.9 km/h 56% 0 mm
17:04 21.3 °C 11.9 °C 1024.6 hPa NE 4.8 km/h 16.1 km/h 55% 0 mm
17:09 20.7 °C 11.3 °C 1024.3 hPa NE 6.4 km/h 16.1 km/h 55% 0 mm
17:14 20.4 °C 11.3 °C 1024.3 hPa NE 6.4 km/h 16.1 km/h 56% 0 mm
17:19 20.3 °C 11.2 °C 1024.3 hPa NE 4.8 km/h 14.5 km/h 56% 0 mm
17:24 20.2 °C 11.7 °C 1024.3 hPa NE 1.6 km/h 9.7 km/h 58% 0 mm
17:29 20.8 °C 11.7 °C 1024.3 hPa NE 3.2 km/h 9.7 km/h 56% 0 mm
17:34 21.1 °C 12 °C 1024.3 hPa NE 3.2 km/h 12.9 km/h 56% 0 mm
17:39 21.3 °C 11.9 °C 1024.6 hPa NE 8 km/h 17.7 km/h 55% 0 mm
17:44 21.4 °C 12.2 °C 1024.6 hPa Calm   8 km/h 56% 0 mm
17:49 21.3 °C 11.9 °C 1024.6 hPa NNW 9.7 km/h 11.3 km/h 55% 0 mm
17:54 21.1 °C 12 °C 1024.6 hPa NNE 1.6 km/h 9.7 km/h 56% 0 mm
17:59 21 °C 11.9 °C 1024.6 hPa NNE 4.8 km/h 17.7 km/h 56% 0 mm
18:04 20.9 °C 11.5 °C 1024.6 hPa NNE 4.8 km/h 17.7 km/h 55% 0 mm
18:09 20.8 °C 11.7 °C 1024.6 hPa NNW 4.8 km/h 12.9 km/h 56% 0 mm
18:14 20.8 °C 11.4 °C 1024.6 hPa NE 9.7 km/h 11.3 km/h 55% 0 mm
18:19 20.8 °C 11.4 °C 1024.6 hPa NE 9.7 km/h 14.5 km/h 55% 0 mm
18:24 20.6 °C 11.2 °C 1024.6 hPa ENE 3.2 km/h 14.5 km/h 55% 0 mm
18:29 20.3 °C 11.3 °C 1024.6 hPa NNE 3.2 km/h 11.3 km/h 56% 0 mm
18:34 20.2 °C 11.1 °C 1024.6 hPa NE 3.2 km/h 11.3 km/h 56% 0 mm
18:39 20.2 °C 11.2 °C 1024.6 hPa NE 4.8 km/h 12.9 km/h 56% 0 mm
18:44 20.2 °C 11.1 °C 1024.6 hPa NNE 1.6 km/h 11.3 km/h 56% 0 mm
18:49 20.2 °C 11.1 °C 1024.6 hPa ENE 4.8 km/h 11.3 km/h 56% 0 mm
18:54 20.1 °C 11.3 °C 1024.6 hPa ENE 1.6 km/h 8 km/h 57% 0 mm
18:59 19.8 °C 11 °C 1024.6 hPa ENE 3.2 km/h 6.4 km/h 57% 0 mm
19:04 19.6 °C 10.8 °C 1024.6 hPa ENE 1.6 km/h 6.4 km/h 57% 0 mm
19:09 19.5 °C 10.8 °C 1024.9 hPa NE 1.6 km/h 6.4 km/h 57% 0 mm
19:14 19.5 °C 11 °C 1024.9 hPa NE 3.2 km/h 6.4 km/h 58% 0 mm
19:19 19.4 °C 10.7 °C 1024.9 hPa ENE 4.8 km/h 8 km/h 57% 0 mm
19:24 19.3 °C 10.6 °C 1024.9 hPa ENE 8 km/h 9.7 km/h 57% 0 mm
19:29 19.2 °C 10.5 °C 1024.9 hPa NE 3.2 km/h 8 km/h 57% 0 mm
19:34 19.1 °C 10.3 °C 1024.9 hPa Calm   3.2 km/h 57% 0 mm
19:39 18.8 °C 10.4 °C 1024.9 hPa Calm   4.8 km/h 58% 0 mm
19:44 18.6 °C 10.4 °C 1024.9 hPa Calm     59% 0 mm
19:49 18.4 °C 10.5 °C 1024.9 hPa Calm   6.4 km/h 60% 0 mm
19:54 18.3 °C 10.4 °C 1024.9 hPa NE 1.6 km/h 8 km/h 60% 0 mm
19:59 18.1 °C 10.4 °C 1024.9 hPa Calm   3.2 km/h 61% 0 mm
20:04 17.8 °C 10.4 °C 1024.9 hPa Calm     62% 0 mm
20:09 17.7 °C 10.3 °C 1024.9 hPa Calm   3.2 km/h 62% 0 mm
20:14 17.6 °C 10.2 °C 1024.9 hPa Calm   3.2 km/h 62% 0 mm
20:19 17.4 °C 10.3 °C 1024.9 hPa Calm     63% 0 mm
20:24 17.2 °C 10.3 °C 1024.9 hPa Calm     64% 0 mm
20:29 16.9 °C 10.3 °C 1024.9 hPa Calm     65% 0 mm
20:34 16.8 °C 10.2 °C 1024.9 hPa Calm     65% 0 mm
20:39 16.8 °C 10.2 °C 1025.3 hPa Calm     65% 0 mm
20:44 16.8 °C 10.2 °C 1024.9 hPa Calm   3.2 km/h 65% 0 mm
20:49 16.7 °C 10.1 °C 1025.3 hPa Calm   3.2 km/h 65% 0 mm
20:54 16.6 °C 10.2 °C 1025.3 hPa Calm   4.8 km/h 66% 0 mm
20:59 16.4 °C 10.1 °C 1025.3 hPa Calm   4.8 km/h 66% 0 mm
21:04 16.5 °C 10.1 °C 1025.3 hPa Calm     66% 0 mm
21:09 16.6 °C 10.2 °C 1025.6 hPa Calm     66% 0 mm
21:14 16.6 °C 10.2 °C 1025.6 hPa Calm     66% 0 mm
21:19 16.5 °C 10.1 °C 1025.6 hPa Calm     66% 0 mm
21:24 16.5 °C 10.1 °C 1025.6 hPa Calm     66% 0 mm
21:29 16.4 °C 10.3 °C 1025.6 hPa Calm     67% 0 mm
21:34 16.3 °C 10.1 °C 1026 hPa Calm   3.2 km/h 67% 0 mm
21:39 16.3 °C 10.3 °C 1026 hPa Calm   1.6 km/h 68% 0 mm
21:44 16.2 °C 10.3 °C 1026 hPa Calm   3.2 km/h 68% 0 mm
21:49 16.1 °C 10.2 °C 1025.6 hPa Calm   3.2 km/h 68% 0 mm
21:54 16 °C 10.3 °C 1025.6 hPa Calm   4.8 km/h 69% 0 mm
21:59 15.9 °C 10.2 °C 1025.6 hPa Calm     69% 0 mm
22:04 15.9 °C 10.2 °C 1025.6 hPa Calm     69% 0 mm
22:09 15.8 °C 10.3 °C 1025.6 hPa Calm     70% 0 mm
22:14 15.8 °C 10.3 °C 1025.6 hPa East 1.6 km/h 8 km/h 70% 0 mm
22:19 15.7 °C 10.3 °C 1025.6 hPa East 1.6 km/h 8 km/h 70% 0 mm
22:24 15.8 °C 10.3 °C 1025.6 hPa East 1.6 km/h 9.7 km/h 70% 0 mm
22:29 15.7 °C 10.3 °C 1025.6 hPa East 3.2 km/h 4.8 km/h 70% 0 mm
22:34 15.7 °C 10.4 °C 1025.6 hPa Calm   8 km/h 71% 0 mm
22:39 15.6 °C 10.3 °C 1025.6 hPa Calm   1.6 km/h 71% 0 mm
22:44 15.4 °C 10.4 °C 1025.6 hPa ESE 3.2 km/h 6.4 km/h 72% 0 mm
22:49 15.3 °C 10.3 °C 1025.6 hPa ESE 3.2 km/h 8 km/h 72% 0 mm
22:54 15.3 °C 10.4 °C 1025.6 hPa ESE 3.2 km/h 8 km/h 73% 0 mm
22:59 15.1 °C 10.5 °C 1025.6 hPa SE 1.6 km/h 8 km/h 74% 0 mm
23:04 15 °C 10.4 °C 1025.6 hPa SE 1.6 km/h 8 km/h 74% 0 mm
23:09 14.8 °C 10.4 °C 1025.6 hPa Calm     75% 0 mm
23:14 14.6 °C 10.4 °C 1025.6 hPa Calm     76% 0 mm
23:19 14.6 °C 10.4 °C 1025.6 hPa Calm   4.8 km/h 76% 0 mm
23:24 14.4 °C 10.4 °C 1025.6 hPa ESE 1.6 km/h 4.8 km/h 77% 0 mm
23:29 14.3 °C 10.3 °C 1025.6 hPa Calm   3.2 km/h 77% 0 mm
23:34 14.3 °C 10.3 °C 1025.6 hPa Calm   4.8 km/h 77% 0 mm
23:39 14.2 °C 10.2 °C 1025.6 hPa Calm     77% 0 mm
23:44 14.1 °C 10.3 °C 1025.6 hPa Calm     78% 0 mm
23:49 13.9 °C 10.2 °C 1025.6 hPa Calm     78% 0 mm
23:54 13.9 °C 10.3 °C 1025.6 hPa Calm     79% 0 mm
23:59 13.8 °C 10.2 °C 1025.6 hPa Calm     79% 0 mm
Buffalo, New York, USA
Compliments of Weather Underground - 2.5 mb